Time,TemperatureF,DewpointF,PressureIn,WindDirection,WindDirectionDegrees,WindSpeedMPH,WindSpeedGustMPH,Humidity,HourlyPrecipIn,Conditions,Clouds,dailyrainin,SoftwareType,DateUTC
2013-05-06 00:05:00,158.0,0.0,29.96,NW,315,16.0,19.0,0,0.00,,---,0.00,VWS V14.00,2013-05-06 05:05:00,
2013-05-06 00:15:00,158.0,0.0,29.96,NW,306,15.0,19.0,0,0.00,,---,0.00,VWS V14.00,2013-05-06 05:15:00,
2013-05-06 00:25:00,158.0,0.0,29.96,WNW,298,13.0,19.0,0,0.00,,---,0.00,VWS V14.00,2013-05-06 05:25:00,
2013-05-06 00:35:00,158.0,0.0,29.96,WNW,298,19.0,19.0,0,0.00,,---,0.00,VWS V14.00,2013-05-06 05:35:00,
2013-05-06 00:45:00,158.0,0.0,29.96,NW,304,17.0,20.0,0,0.00,,---,0.00,VWS V14.00,2013-05-06 05:45:00,
2013-05-06 00:55:00,158.0,0.0,29.96,WNW,294,15.0,19.0,0,0.00,,---,0.00,VWS V14.00,2013-05-06 05:55:00,
2013-05-06 01:05:00,158.0,0.0,29.96,WNW,289,16.0,19.0,0,0.00,,---,0.00,VWS V14.00,2013-05-06 06:05:00,
2013-05-06 01:15:00,158.0,0.0,29.96,WNW,294,16.0,18.0,0,0.00,,---,0.00,VWS V14.00,2013-05-06 06:15:00,
2013-05-06 01:25:00,158.0,0.0,29.95,WNW,284,10.0,17.0,0,0.00,,---,0.00,VWS V14.00,2013-05-06 06:25:00,
2013-05-06 01:35:00,158.0,0.0,29.95,WNW,286,14.0,17.0,0,0.00,,---,0.00,VWS V14.00,2013-05-06 06:35:00,
2013-05-06 01:45:00,158.0,0.0,29.95,WNW,288,16.0,19.0,0,0.00,,---,0.00,VWS V14.00,2013-05-06 06:45:00,
2013-05-06 01:55:00,158.0,0.0,29.95,WNW,285,17.0,19.0,0,0.00,,---,0.00,VWS V14.00,2013-05-06 06:55:00,
2013-05-06 02:05:00,158.0,0.0,29.94,NW,307,16.0,18.0,0,0.00,,---,0.00,VWS V14.00,2013-05-06 07:05:00,
2013-05-06 02:15:00,158.0,0.0,29.94,WNW,287,16.0,18.0,0,0.00,,---,0.00,VWS V14.00,2013-05-06 07:15:00,
2013-05-06 02:25:00,158.0,0.0,29.94,WNW,289,14.0,18.0,0,0.00,,---,0.00,VWS V14.00,2013-05-06 07:25:00,
2013-05-06 02:35:00,158.0,0.0,29.94,WNW,284,12.0,17.0,0,0.00,,---,0.00,VWS V14.00,2013-05-06 07:35:00,
2013-05-06 02:45:00,158.0,0.0,29.94,West,272,14.0,16.0,0,0.00,,---,0.00,VWS V14.00,2013-05-06 07:45:00,
2013-05-06 02:55:00,158.0,0.0,29.94,West,265,12.0,17.0,0,0.00,,---,0.00,VWS V14.00,2013-05-06 07:55:00,
2013-05-06 03:05:00,158.0,0.0,29.94,West,277,14.0,17.0,0,0.00,,---,0.00,VWS V14.00,2013-05-06 08:05:00,
2013-05-06 03:15:00,158.0,0.0,29.94,WSW,252,14.0,18.0,0,0.00,,---,0.00,VWS V14.00,2013-05-06 08:15:00,
2013-05-06 03:25:00,158.0,0.0,29.93,West,259,16.0,18.0,0,0.00,,---,0.00,VWS V14.00,2013-05-06 08:25:00,
2013-05-06 03:35:00,158.0,0.0,29.94,West,267,15.0,19.0,0,0.00,,---,0.00,VWS V14.00,2013-05-06 08:35:00,
2013-05-06 03:45:00,158.0,0.0,29.93,WSW,253,16.0,19.0,0,0.00,,---,0.00,VWS V14.00,2013-05-06 08:45:00,
2013-05-06 03:55:00,158.0,0.0,29.94,West,261,14.0,19.0,0,0.00,,---,0.00,VWS V14.00,2013-05-06 08:55:00,
2013-05-06 04:05:00,158.0,0.0,29.93,WSW,253,15.0,18.0,0,0.00,,---,0.00,VWS V14.00,2013-05-06 09:05:00,
2013-05-06 04:15:00,158.0,0.0,29.94,West,260,14.0,18.0,0,0.00,,---,0.00,VWS V14.00,2013-05-06 09:15:00,
2013-05-06 04:25:00,158.0,0.0,29.94,WSW,257,12.0,17.0,0,0.00,,---,0.00,VWS V14.00,2013-05-06 09:25:00,
2013-05-06 04:35:00,158.0,0.0,29.94,West,261,13.0,16.0,0,0.00,,---,0.00,VWS V14.00,2013-05-06 09:35:00,
2013-05-06 04:45:00,158.0,0.0,29.93,WSW,257,14.0,16.0,0,0.00,,---,0.00,VWS V14.00,2013-05-06 09:45:00,
2013-05-06 04:55:00,158.0,0.0,29.93,WSW,251,13.0,15.0,0,0.00,,---,0.00,VWS V14.00,2013-05-06 09:55:00,
2013-05-06 05:05:00,158.0,0.0,29.93,WSW,246,12.0,16.0,0,0.00,,---,0.00,VWS V14.00,2013-05-06 10:05:00,
2013-05-06 05:15:00,158.0,0.0,29.94,West,262,15.0,18.0,0,0.00,,---,0.00,VWS V14.00,2013-05-06 10:15:00,
2013-05-06 05:25:00,158.0,0.0,29.94,WSW,255,14.0,18.0,0,0.00,,---,0.00,VWS V14.00,2013-05-06 10:25:00,
2013-05-06 05:35:00,158.0,0.0,29.94,WSW,255,14.0,17.0,0,0.00,,---,0.00,VWS V14.00,2013-05-06 10:35:00,
2013-05-06 05:45:00,158.0,0.0,29.95,West,263,17.0,18.0,0,0.00,,---,0.00,VWS V14.00,2013-05-06 10:45:00,
2013-05-06 05:55:00,158.0,0.0,29.95,West,259,20.0,20.0,0,0.00,,---,0.00,VWS V14.00,2013-05-06 10:55:00,
2013-05-06 06:05:00,158.0,0.0,29.95,West,259,18.0,22.0,0,0.00,,---,0.00,VWS V14.00,2013-05-06 11:05:00,
2013-05-06 06:15:00,158.0,0.0,29.95,West,260,18.0,21.0,0,0.00,,---,0.00,VWS V14.00,2013-05-06 11:15:00,
2013-05-06 06:25:00,158.0,0.0,29.95,WSW,254,19.0,21.0,0,0.00,,---,0.00,VWS V14.00,2013-05-06 11:25:00,
2013-05-06 06:35:00,158.0,0.0,29.95,WSW,252,17.0,20.0,0,0.00,,---,0.00,VWS V14.00,2013-05-06 11:35:00,
2013-05-06 06:45:00,158.0,0.0,29.96,WSW,255,16.0,19.0,0,0.00,,---,0.00,VWS V14.00,2013-05-06 11:45:00,
2013-05-06 06:55:00,158.0,0.0,29.96,WSW,240,15.0,17.0,0,0.00,,---,0.00,VWS V14.00,2013-05-06 11:55:00,
2013-05-06 07:05:00,158.0,0.0,29.96,WSW,252,16.0,18.0,0,0.00,,---,0.00,VWS V14.00,2013-05-06 12:05:00,
2013-05-06 07:15:00,158.0,0.0,29.96,WSW,251,15.0,18.0,0,0.00,,---,0.00,VWS V14.00,2013-05-06 12:15:00,
2013-05-06 07:25:00,158.0,0.0,29.97,WSW,242,13.0,16.0,0,0.00,,---,0.00,VWS V14.00,2013-05-06 12:25:00,
2013-05-06 07:35:00,158.0,0.0,29.97,WSW,246,14.0,16.0,0,0.00,,---,0.00,VWS V14.00,2013-05-06 12:35:00,
2013-05-06 07:45:00,158.0,0.0,29.97,WSW,251,14.0,17.0,0,0.00,,---,0.00,VWS V14.00,2013-05-06 12:45:00,
2013-05-06 07:55:00,158.0,0.0,29.98,WSW,241,14.0,19.0,0,0.00,,---,0.00,VWS V14.00,2013-05-06 12:55:00,
2013-05-06 08:05:00,158.0,0.0,29.98,WSW,247,15.0,18.0,0,0.00,,---,0.00,VWS V14.00,2013-05-06 13:05:00,
2013-05-06 08:15:00,158.0,0.0,29.97,SW,236,14.0,18.0,0,0.00,,---,0.00,VWS V14.00,2013-05-06 13:15:00,
2013-05-06 08:25:00,158.0,0.0,29.98,WSW,238,15.0,19.0,0,0.00,,---,0.00,VWS V14.00,2013-05-06 13:25:00,
2013-05-06 08:35:00,158.0,0.0,29.97,SW,234,18.0,22.0,0,0.00,,---,0.00,VWS V14.00,2013-05-06 13:35:00,
2013-05-06 08:45:00,158.0,0.0,29.98,WSW,244,17.0,22.0,0,0.00,,---,0.00,VWS V14.00,2013-05-06 13:45:00,
2013-05-06 08:55:00,158.0,0.0,29.98,WSW,252,19.0,21.0,0,0.00,,---,0.00,VWS V14.00,2013-05-06 13:55:00,
2013-05-06 09:05:00,158.0,0.0,29.98,WSW,247,17.0,23.0,0,0.00,,---,0.00,VWS V14.00,2013-05-06 14:05:00,
2013-05-06 09:15:00,158.0,0.0,29.98,WSW,248,21.0,23.0,0,0.00,,---,0.00,VWS V14.00,2013-05-06 14:15:00,
2013-05-06 09:25:00,158.0,0.0,29.98,WSW,246,17.0,21.0,0,0.00,,---,0.00,VWS V14.00,2013-05-06 14:25:00,
2013-05-06 09:35:00,158.0,0.0,29.98,West,262,17.0,21.0,0,0.00,,---,0.00,VWS V14.00,2013-05-06 14:35:00,
2013-05-06 09:45:00,158.0,0.0,29.98,West,259,16.0,20.0,0,0.00,,---,0.00,VWS V14.00,2013-05-06 14:45:00,
2013-05-06 09:55:00,158.0,0.0,29.98,West,261,15.0,19.0,0,0.00,,---,0.00,VWS V14.00,2013-05-06 14:55:00,
2013-05-06 10:05:00,158.0,0.0,29.99,West,271,16.0,19.0,0,0.00,,---,0.00,VWS V14.00,2013-05-06 15:05:00,
2013-05-06 10:15:00,158.0,0.0,29.99,West,265,17.0,21.0,0,0.00,,---,0.00,VWS V14.00,2013-05-06 15:15:00,
2013-05-06 10:25:00,158.0,0.0,29.99,WSW,250,13.0,18.0,0,0.00,,---,0.00,VWS V14.00,2013-05-06 15:25:00,
2013-05-06 10:35:00,158.0,0.0,29.99,West,263,12.0,17.0,0,0.00,,---,0.00,VWS V14.00,2013-05-06 15:35:00,
2013-05-06 10:45:00,158.0,0.0,29.98,West,262,14.0,16.0,0,0.00,,---,0.00,VWS V14.00,2013-05-06 15:45:00,
2013-05-06 10:55:00,158.0,0.0,29.98,West,259,13.0,17.0,0,0.00,,---,0.00,VWS V14.00,2013-05-06 15:55:00,
2013-05-06 11:05:00,158.0,0.0,29.98,West,270,12.0,16.0,0,0.00,,---,0.00,VWS V14.00,2013-05-06 16:05:00,
2013-05-06 11:15:00,158.0,0.0,29.98,West,259,13.0,14.0,0,0.00,,---,0.00,VWS V14.00,2013-05-06 16:15:00,
2013-05-06 11:25:00,158.0,0.0,29.97,West,261,12.0,13.0,0,0.00,,---,0.00,VWS V14.00,2013-05-06 16:25:00,
2013-05-06 11:35:00,158.0,0.0,29.97,WSW,254,12.0,12.0,0,0.00,,---,0.00,VWS V14.00,2013-05-06 16:35:00,
2013-05-06 11:45:00,158.0,0.0,29.97,SW,234,5.0,12.0,0,0.00,,---,0.00,VWS V14.00,2013-05-06 16:45:00,
2013-05-06 11:55:00,158.0,0.0,29.96,West,259,5.0,11.0,0,0.00,,---,0.00,VWS V14.00,2013-05-06 16:55:00,
2013-05-06 12:05:00,158.0,0.0,29.96,SW,226,12.0,14.0,0,0.00,,---,0.00,VWS V14.00,2013-05-06 17:05:00,
2013-05-06 12:15:00,158.0,0.0,29.95,SW,232,10.0,14.0,0,0.00,,---,0.00,VWS V14.00,2013-05-06 17:15:00,
2013-05-06 12:25:00,158.0,0.0,29.95,WSW,240,7.0,15.0,0,0.00,,---,0.00,VWS V14.00,2013-05-06 17:25:00,
2013-05-06 12:35:00,158.0,0.0,29.95,SSW,205,7.0,13.0,0,0.00,,---,0.00,VWS V14.00,2013-05-06 17:35:00,
2013-05-06 12:45:00,158.0,0.0,29.95,SW,216,6.0,11.0,0,0.00,,---,0.00,VWS V14.00,2013-05-06 17:45:00,
2013-05-06 12:55:00,158.0,0.0,29.94,South,189,5.0,9.0,0,0.00,,---,0.00,VWS V14.00,2013-05-06 17:55:00,
2013-05-06 13:05:00,158.0,0.0,29.94,SSE,161,13.0,16.0,0,0.00,,---,0.00,VWS V14.00,2013-05-06 18:05:00,
2013-05-06 13:15:00,158.0,0.0,29.94,South,170,12.0,16.0,0,0.00,,---,0.00,VWS V14.00,2013-05-06 18:15:00,
2013-05-06 13:25:00,158.0,0.0,29.93,SSW,198,16.0,19.0,0,0.00,,---,0.00,VWS V14.00,2013-05-06 18:25:00,
2013-05-06 13:35:00,158.0,0.0,29.93,South,182,18.0,22.0,0,0.00,,---,0.00,VWS V14.00,2013-05-06 18:35:00,
2013-05-06 13:45:00,158.0,0.0,29.93,South,191,19.0,23.0,0,0.00,,---,0.00,VWS V14.00,2013-05-06 18:45:00,
2013-05-06 13:55:00,158.0,0.0,29.92,SSW,197,19.0,23.0,0,0.00,,---,0.00,VWS V14.00,2013-05-06 18:55:00,
2013-05-06 14:05:00,158.0,0.0,29.92,SSW,198,18.0,25.0,0,0.00,,---,0.00,VWS V14.00,2013-05-06 19:05:00,
2013-05-06 14:15:00,158.0,0.0,29.92,SSW,192,22.0,23.0,0,0.00,,---,0.00,VWS V14.00,2013-05-06 19:15:00,
2013-05-06 14:25:00,158.0,0.0,29.92,SSW,198,18.0,23.0,0,0.00,,---,0.00,VWS V14.00,2013-05-06 19:25:00,
2013-05-06 14:35:00,158.0,0.0,29.92,SSW,198,18.0,24.0,0,0.00,,---,0.00,VWS V14.00,2013-05-06 19:35:00,
2013-05-06 14:45:00,158.0,0.0,29.92,South,187,23.0,25.0,0,0.00,,---,0.00,VWS V14.00,2013-05-06 19:45:00,
2013-05-06 14:55:00,158.0,0.0,29.91,SSW,202,17.0,26.0,0,0.00,,---,0.00,VWS V14.00,2013-05-06 19:55:00,
2013-05-06 15:05:00,158.0,0.0,29.90,SSW,209,22.0,28.0,0,0.00,,---,0.00,VWS V14.00,2013-05-06 20:05:00,
2013-05-06 15:15:00,158.0,0.0,29.90,SSW,212,21.0,29.0,0,0.00,,---,0.00,VWS V14.00,2013-05-06 20:15:00,
2013-05-06 15:25:00,158.0,0.0,29.89,SSW,208,26.0,28.0,0,0.00,,---,0.00,VWS V14.00,2013-05-06 20:25:00,
2013-05-06 15:35:00,158.0,0.0,29.89,SSW,211,21.0,29.0,0,0.00,,---,0.00,VWS V14.00,2013-05-06 20:35:00,
2013-05-06 15:45:00,158.0,0.0,29.89,SSW,210,21.0,26.0,0,0.00,,---,0.00,VWS V14.00,2013-05-06 20:45:00,
2013-05-06 15:55:00,158.0,0.0,29.88,SSW,209,24.0,26.0,0,0.00,,---,0.00,VWS V14.00,2013-05-06 20:55:00,
2013-05-06 16:05:00,158.0,0.0,29.88,SW,217,21.0,27.0,0,0.00,,---,0.00,VWS V14.00,2013-05-06 21:05:00,
2013-05-06 16:15:00,158.0,0.0,29.88,SSW,209,21.0,27.0,0,0.00,,---,0.00,VWS V14.00,2013-05-06 21:15:00,
2013-05-06 16:25:00,158.0,0.0,29.88,SSW,207,20.0,27.0,0,0.00,,---,0.00,VWS V14.00,2013-05-06 21:25:00,
2013-05-06 16:35:00,158.0,0.0,29.88,SSW,211,19.0,27.0,0,0.00,,---,0.00,VWS V14.00,2013-05-06 21:35:00,
2013-05-06 16:45:00,158.0,0.0,29.88,SW,228,23.0,26.0,0,0.00,,---,0.00,VWS V14.00,2013-05-06 21:45:00,
2013-05-06 16:55:00,158.0,0.0,29.88,SW,222,23.0,26.0,0,0.00,,---,0.00,VWS V14.00,2013-05-06 21:55:00,
2013-05-06 17:05:00,158.0,0.0,29.88,SSW,211,20.0,25.0,0,0.00,,---,0.00,VWS V14.00,2013-05-06 22:05:00,
2013-05-06 17:15:00,158.0,0.0,29.88,SSW,209,20.0,25.0,0,0.00,,---,0.00,VWS V14.00,2013-05-06 22:15:00,
2013-05-06 17:25:00,158.0,0.0,29.88,SW,217,24.0,25.0,0,0.00,,---,0.00,VWS V14.00,2013-05-06 22:25:00,
2013-05-06 17:35:00,158.0,0.0,29.88,SSW,210,18.0,26.0,0,0.00,,---,0.00,VWS V14.00,2013-05-06 22:35:00,
2013-05-06 17:45:00,158.0,0.0,29.88,SSW,212,22.0,25.0,0,0.00,,---,0.00,VWS V14.00,2013-05-06 22:45:00,
2013-05-06 17:55:00,158.0,0.0,29.88,SSW,209,21.0,26.0,0,0.00,,---,0.00,VWS V14.00,2013-05-06 22:55:00,
2013-05-06 18:05:00,158.0,0.0,29.88,SW,219,16.0,25.0,0,0.00,,---,0.00,VWS V14.00,2013-05-06 23:05:00,
2013-05-06 18:15:00,158.0,0.0,29.88,SW,218,19.0,23.0,0,0.00,,---,0.00,VWS V14.00,2013-05-06 23:15:00,
2013-05-06 18:25:00,158.0,0.0,29.88,SSW,205,23.0,23.0,0,0.00,,---,0.00,VWS V14.00,2013-05-06 23:25:00,
2013-05-06 18:35:00,158.0,0.0,29.88,SW,215,20.0,24.0,0,0.00,,---,0.00,VWS V14.00,2013-05-06 23:35:00,
2013-05-06 18:45:00,158.0,0.0,29.88,SSW,207,17.0,22.0,0,0.00,,---,0.00,VWS V14.00,2013-05-06 23:45:00,
2013-05-06 18:55:00,158.0,0.0,29.88,SSW,212,16.0,20.0,0,0.00,,---,0.00,VWS V14.00,2013-05-06 23:55:00,
2013-05-06 19:05:00,158.0,0.0,29.88,SSW,211,18.0,22.0,0,0.00,,---,0.00,VWS V14.00,2013-05-07 00:05:00,
2013-05-06 19:15:00,158.0,0.0,29.88,SW,216,17.0,21.0,0,0.00,,---,0.00,VWS V14.00,2013-05-07 00:15:00,
2013-05-06 19:25:00,158.0,0.0,29.89,SW,214,15.0,19.0,0,0.00,,---,0.00,VWS V14.00,2013-05-07 00:25:00,
2013-05-06 19:35:00,158.0,0.0,29.89,SSW,213,11.0,16.0,0,0.00,,---,0.00,VWS V14.00,2013-05-07 00:35:00,
2013-05-06 19:45:00,158.0,0.0,29.89,SW,221,15.0,16.0,0,0.00,,---,0.00,VWS V14.00,2013-05-07 00:45:00,
2013-05-06 19:55:00,158.0,0.0,29.90,SW,231,13.0,16.0,0,0.00,,---,0.00,VWS V14.00,2013-05-07 00:55:00,
2013-05-06 20:05:00,158.0,0.0,29.90,SW,231,14.0,15.0,0,0.00,,---,0.00,VWS V14.00,2013-05-07 01:05:00,
2013-05-06 20:15:00,158.0,0.0,29.90,WSW,237,11.0,16.0,0,0.00,,---,0.00,VWS V14.00,2013-05-07 01:15:00,
2013-05-06 20:25:00,158.0,0.0,29.90,WSW,246,12.0,14.0,0,0.00,,---,0.00,VWS V14.00,2013-05-07 01:25:00,
2013-05-06 20:35:00,158.0,0.0,29.90,West,267,9.0,13.0,0,0.00,,---,0.00,VWS V14.00,2013-05-07 01:35:00,
2013-05-06 20:45:00,158.0,0.0,29.92,NW,308,12.0,15.0,0,0.00,,---,0.00,VWS V14.00,2013-05-07 01:45:00,
2013-05-06 20:55:00,158.0,0.0,29.92,WNW,286,10.0,12.0,0,0.00,,---,0.00,VWS V14.00,2013-05-07 01:55:00,
2013-05-06 21:05:00,158.0,0.0,29.92,WNW,296,9.0,10.0,0,0.00,,---,0.00,VWS V14.00,2013-05-07 02:05:00,
2013-05-06 21:15:00,158.0,0.0,29.92,WNW,298,7.0,10.0,0,0.00,,---,0.00,VWS V14.00,2013-05-07 02:15:00,
2013-05-06 21:25:00,158.0,0.0,29.93,NW,317,6.0,9.0,0,0.00,,---,0.00,VWS V14.00,2013-05-07 02:25:00,
2013-05-06 21:35:00,158.0,0.0,29.93,NW,317,4.0,7.0,0,0.00,,---,0.00,VWS V14.00,2013-05-07 02:35:00,
2013-05-06 21:45:00,158.0,0.0,29.93,NW,317,4.0,5.0,0,0.00,,---,0.00,VWS V14.00,2013-05-07 02:45:00,
2013-05-06 21:55:00,158.0,0.0,29.93,WNW,295,5.0,6.0,0,0.00,,---,0.00,VWS V14.00,2013-05-07 02:55:00,
2013-05-06 22:05:00,158.0,0.0,29.94,WNW,296,5.0,7.0,0,0.00,,---,0.00,VWS V14.00,2013-05-07 03:05:00,
2013-05-06 22:15:00,158.0,0.0,29.94,NW,309,12.0,12.0,0,0.00,,---,0.00,VWS V14.00,2013-05-07 03:15:00,
2013-05-06 22:25:00,158.0,0.0,29.94,NW,325,10.0,14.0,0,0.00,,---,0.00,VWS V14.00,2013-05-07 03:25:00,
2013-05-06 22:35:00,158.0,0.0,29.94,NNW,335,7.0,11.0,0,0.00,,---,0.00,VWS V14.00,2013-05-07 03:35:00,
2013-05-06 22:45:00,158.0,0.0,29.94,NNW,338,6.0,10.0,0,0.00,,---,0.00,VWS V14.00,2013-05-07 03:45:00,
2013-05-06 22:55:00,158.0,0.0,29.94,NNW,338,6.0,7.0,0,0.00,,---,0.00,VWS V14.00,2013-05-07 03:55:00,
2013-05-06 23:05:00,158.0,0.0,29.94,NNW,338,4.0,6.0,0,0.00,,---,0.00,VWS V14.00,2013-05-07 04:05:00,
2013-05-06 23:15:00,158.0,0.0,29.94,NNW,338,2.0,5.0,0,0.00,,---,0.00,VWS V14.00,2013-05-07 04:15:00,
2013-05-06 23:25:00,158.0,0.0,29.94,NNW,338,2.0,4.0,0,0.00,,---,0.00,VWS V14.00,2013-05-07 04:25:00,
2013-05-06 23:35:00,158.0,0.0,29.93,NNW,338,0.0,2.0,0,0.00,,---,0.00,VWS V14.00,2013-05-07 04:35:00,
2013-05-06 23:45:00,158.0,0.0,29.93,NNW,338,0.0,0.0,0,0.00,,---,0.00,VWS V14.00,2013-05-07 04:45:00,
2013-05-06 23:55:00,158.0,0.0,29.93,NNW,338,0.0,0.0,0,0.00,,---,0.00,VWS V14.00,2013-05-07 04:55:00,